Location: ??
(34.7252°N, 135.5457°E)
Time: 07:30:16
(UTC+00:00)

Cosmos 1844 - Pass Details

Date: 24 September 2020
Orbit: 824 x 866 km, 70.9° (Epoch: 29 October)

Event Time Altitude Azimuth Distance (km) Brightness Sun altitude
Rises 20:11:14 0° 334° (NNW) 3,366 6.6 -8.4°
Reaches altitude 10° 20:13:42 10° 331° (NNW) 2,428 5.9 -7.9°
Maximum altitude 20:19:09 61° 252° (WSW) 933 3.7 -6.8°
Drops below altitude 10° 20:24:36 10° 173° (S) 2,420 6.2 -5.6°
Sets 20:27:03 0° 170° (S) 3,354 6.9 -5.1°
